TimeCDT,TemperatureF,Dew PointF,Humidity,Sea Level PressureIn,VisibilityMPH,Wind Direction,Wind SpeedMPH,Gust SpeedMPH,PrecipitationIn,Events,Conditions,WindDirDegrees,DateUTC
12:15 AM,54.5,46.9,76,30.13,10.0,NE,3.5,-,N/A,,Unknown,50,2013-09-14 05:15:00
12:35 AM,54.7,47.3,76,30.13,10.0,ENE,3.5,-,N/A,,Clear,60,2013-09-14 05:35:00
12:55 AM,54.0,47.1,78,30.14,10.0,NE,4.6,-,N/A,,Clear,50,2013-09-14 05:55:00
1:15 AM,54.0,46.9,77,30.14,10.0,NE,4.6,-,N/A,,Clear,50,2013-09-14 06:15:00
1:35 AM,53.2,47.1,80,30.13,10.0,ENE,4.6,-,N/A,,Clear,70,2013-09-14 06:35:00
1:55 AM,53.1,46.9,80,30.14,10.0,ENE,4.6,-,N/A,,Clear,70,2013-09-14 06:55:00
2:15 AM,52.2,46.9,82,30.14,10.0,ENE,4.6,-,N/A,,Unknown,60,2013-09-14 07:15:00
2:35 AM,52.2,46.8,82,30.14,10.0,ENE,4.6,-,N/A,,Unknown,60,2013-09-14 07:35:00
2:55 AM,52.0,46.8,82,30.14,10.0,Calm,Calm,-,N/A,,Unknown,0,2013-09-14 07:55:00
3:15 AM,50.7,46.4,85,30.13,10.0,ENE,4.6,-,N/A,,Unknown,60,2013-09-14 08:15:00
3:35 AM,50.4,46.4,86,30.12,10.0,ENE,3.5,-,N/A,,Unknown,60,2013-09-14 08:35:00
3:55 AM,50.2,46.6,87,30.12,10.0,Calm,Calm,-,N/A,,Unknown,0,2013-09-14 08:55:00
4:15 AM,49.3,46.2,89,30.13,10.0,ENE,3.5,-,N/A,,Unknown,60,2013-09-14 09:15:00
4:35 AM,49.3,46.6,90,30.13,10.0,Calm,Calm,-,N/A,,Unknown,0,2013-09-14 09:35:00
4:55 AM,47.7,45.7,93,30.13,10.0,Calm,Calm,-,N/A,,Unknown,0,2013-09-14 09:55:00
5:15 AM,47.7,45.7,93,30.14,10.0,Calm,Calm,-,N/A,,Unknown,0,2013-09-14 10:15:00
5:35 AM,47.3,45.7,94,30.14,10.0,Calm,Calm,-,N/A,,Unknown,0,2013-09-14 10:35:00
5:55 AM,46.9,45.1,93,30.14,10.0,Calm,Calm,-,N/A,,Unknown,0,2013-09-14 10:55:00
6:15 AM,46.0,44.6,95,30.14,10.0,Calm,Calm,-,N/A,,Unknown,0,2013-09-14 11:15:00
6:35 AM,44.6,43.3,95,30.14,10.0,Calm,Calm,-,N/A,,Unknown,0,2013-09-14 11:35:00
6:55 AM,44.8,43.9,97,30.15,10.0,Calm,Calm,-,N/A,,Unknown,0,2013-09-14 11:55:00
7:50 AM,50.0,48.2,94,30.17,10.0,Calm,Calm,-,N/A,,Clear,0,2013-09-14 12:50:00
8:50 AM,57.2,48.2,72,30.18,10.0,Calm,Calm,-,N/A,,Clear,0,2013-09-14 13:50:00
9:45 AM,59.0,48.2,67,30.19,10.0,Calm,Calm,-,N/A,,Clear,0,2013-09-14 14:45:00
10:55 AM,64.4,42.8,45,30.18,10.0,Variable,3.5,-,N/A,,Clear,0,2013-09-14 15:55:00
11:45 AM,66.2,37.4,35,30.17,10.0,Variable,3.5,-,N/A,,Clear,0,2013-09-14 16:45:00
12:50 PM,69.8,35.6,28,30.06,10.0,Variable,4.6,-,N/A,,Scattered Clouds,0,2013-09-14 17:50:00
1:50 PM,73.4,32.0,22,30.12,10.0,Variable,5.8,-,N/A,,Partly Cloudy,0,2013-09-14 18:50:00
2:50 PM,73.4,32.0,22,30.09,10.0,ESE,5.8,-,N/A,,Partly Cloudy,120,2013-09-14 19:50:00
3:50 PM,73.4,26.6,18,30.08,10.0,ESE,6.9,-,N/A,,Partly Cloudy,120,2013-09-14 20:50:00
4:50 PM,73.4,32.0,22,30.06,10.0,ESE,6.9,-,N/A,,Partly Cloudy,120,2013-09-14 21:50:00
5:50 PM,71.6,37.4,29,30.05,10.0,SE,6.9,-,N/A,,Scattered Clouds,130,2013-09-14 22:50:00
6:50 PM,68.0,42.8,40,30.06,10.0,SE,6.9,-,N/A,,Scattered Clouds,130,2013-09-14 23:50:00
7:50 PM,57.2,48.2,72,30.06,10.0,Calm,Calm,-,N/A,,Scattered Clouds,0,2013-09-15 00:50:00
8:50 PM,53.6,48.2,82,30.06,10.0,ESE,6.9,-,N/A,,Scattered Clouds,120,2013-09-15 01:50:00
9:50 PM,53.6,48.2,82,30.07,10.0,ESE,6.9,-,N/A,,Scattered Clouds,120,2013-09-15 02:50:00
10:15 PM,52.7,48.0,84,30.06,10.0,ESE,4.6,-,N/A,,Clear,110,2013-09-15 03:15:00
10:35 PM,54.0,47.1,78,30.07,10.0,ESE,3.5,-,N/A,,Clear,120,2013-09-15 03:35:00
10:55 PM,53.4,47.3,80,30.06,10.0,ESE,3.5,-,N/A,,Clear,120,2013-09-15 03:55:00
11:15 PM,54.3,47.3,77,30.06,10.0,ESE,4.6,-,N/A,,Clear,110,2013-09-15 04:15:00
11:35 PM,54.9,46.9,75,30.06,10.0,ESE,4.6,-,N/A,,Clear,110,2013-09-15 04:35:00
11:55 PM,52.2,46.6,81,30.07,10.0,ESE,4.6,-,N/A,,Clear,120,2013-09-15 04:55:00